Ketchikan, AK

5:20 PM AKDT on September 24, 2018 (GMT -0800)
Ketchikan International

Weather History for PAKT - July, 2018

Change the Weather History Date:

Saturday, July 28, 2018

  Actual Average Record
Temperature  
Mean Temperature 74 °F -  
Max Temperature 82 °F 63 °F 82 °F (1961)
Min Temperature 66 °F 50 °F 23 °F (1971)
Cooling Degree Days 9    
Growing Degree Days 24 (Base 50)    
Moisture  
Dew Point 55 °F    
Average Humidity 52    
Maximum Humidity 68    
Minimum Humidity 35    
Precipitation  
Precipitation 0.00 in - - ()
Sea Level Pressure  
Sea Level Pressure 30.09 in    
Wind  
Wind Speed 12 mph (NW)    
Max Wind Speed 15 mph    
Max Gust Speed 22 mph    
Visibility 10 miles    
Events      
Averages and records for this station are not official NWS values.
T = Trace of Precipitation, MM = Missing Value Source: NWS Daily Summary

Daily Weather History Graph

Daily Weather History Graph

Search for Another Location

Airport or City:

Astronomy

Jul. 28, 2018 Rise Set
Actual Time 4:47 AM AKDT 8:58 PM AKDT
Civil Twilight 3:58 AM AKDT 9:46 PM AKDT
Nautical Twilight 2:45 AM AKDT 10:58 PM AKDT
Astronomical Twilight 1:25 AM AKDT 12:20 AM AKDT
Moon 9:32 PM AKDT (7/28) 5:36 AM AKDT (7/28)
Length of Visible Light 17h 47m
Length of Day
16h 11m
Full, 99% of the Moon is Illuminated
Jul 28
Full
Aug 4
Last Quarter
Aug 11
New
Aug 17
First Quarter
Aug 26
Full

Hourly Weather History & Observations

Time (AKDT) Temp. Heat Index Dew Point Humidity Pressure Visibility Wind Dir Wind Speed Gust Speed Precip Events Conditions
12:53 AM 70.0 °F - 57.0 °F 63% 30.08 in 10.0 mi NW 12.7 mph - N/A   Clear
1:53 AM 70.0 °F - 57.0 °F 63% 30.08 in 10.0 mi NW 13.8 mph 20.7 mph N/A   Clear
2:53 AM 69.1 °F - 55.9 °F 63% 30.08 in 10.0 mi NW 11.5 mph 19.6 mph N/A   Clear
3:53 AM 68.0 °F - 55.9 °F 65% 30.09 in 10.0 mi NW 11.5 mph - N/A   Clear
4:53 AM 66.9 °F - 55.9 °F 68% 30.08 in 10.0 mi WNW 11.5 mph 19.6 mph N/A   Clear
5:53 AM 66.9 °F - 55.9 °F 68% 30.09 in 10.0 mi NW 11.5 mph - N/A   Clear
6:53 AM 69.1 °F - 55.9 °F 63% 30.09 in 10.0 mi NW 13.8 mph 19.6 mph N/A   Clear
7:53 AM 71.6 °F - 57.2 °F 60% 30.09 in 10.0 mi NW 11.5 mph 18.4 mph N/A   Clear
8:53 AM 73.4 °F - 57.2 °F 57% 30.09 in 10.0 mi NW 13.8 mph 21.9 mph N/A   Clear
9:53 AM 75.0 °F - 57.0 °F 53% 30.09 in 10.0 mi NNW 12.7 mph - N/A   Clear
10:53 AM 75.0 °F - 57.0 °F 53% 30.09 in 10.0 mi NNW 15.0 mph - N/A   Clear
12:53 PM 79.0 °F - 55.0 °F 44% 30.09 in 10.0 mi WNW 10.4 mph 21.9 mph N/A   Clear
1:53 PM 80.6 °F 80.3 °F 53.6 °F 39% 30.09 in 10.0 mi NW 15.0 mph - N/A   Clear
2:53 PM 82.4 °F - 51.8 °F 35% 30.08 in 10.0 mi NW 13.8 mph 18.4 mph N/A   Clear
3:53 PM 82.4 °F - 51.8 °F 35% 30.08 in 10.0 mi NW 12.7 mph - N/A   Clear
4:53 PM 82.4 °F - 51.8 °F 35% 30.07 in 10.0 mi NW 13.8 mph - N/A   Clear
5:53 PM 82.4 °F - 51.8 °F 35% 30.07 in 10.0 mi NW 10.4 mph 18.4 mph N/A   Clear
6:53 PM 80.6 °F - 51.8 °F 37% 30.06 in 10.0 mi NW 11.5 mph - N/A   Clear
7:53 PM 77.0 °F - 53.6 °F 44% 30.07 in 10.0 mi NW 8.1 mph - N/A   Clear
8:53 PM 73.4 °F - 53.6 °F 50% 30.09 in 10.0 mi NW 6.9 mph - N/A   Clear
9:53 PM 71.1 °F - 55.9 °F 59% 30.10 in 10.0 mi NNW 4.6 mph - N/A   Clear
10:53 PM 70.0 °F - 55.0 °F 59% 30.11 in 10.0 mi North 11.5 mph - N/A   Clear
11:53 PM 70.0 °F - 54.0 °F 57% 30.11 in 10.0 mi NNW 13.8 mph - N/A   Clear